timestamp,wind_dir_avg,wind_spd_max_dir,wind_spd_avg,wind_spd_gust,battery_voltage,lat,long
2018-02-02 00:00:00+00:00,223.0,228.0,11.17,13.26,,47.59359,-54.27349
2018-02-02 00:10:00+00:00,225.0,230.0,10.79,13.01,,47.59359,-54.27349
2018-02-02 00:20:00+00:00,218.0,223.0,11.68,13.93,,47.59359,-54.27349
2018-02-02 00:30:00+00:00,220.0,228.0,12.32,14.72,,47.59359,-54.27349
2018-02-02 00:40:00+00:00,215.0,214.0,10.89,12.64,,47.59359,-54.27349
2018-02-02 00:50:00+00:00,218.0,218.0,13.2,14.68,,47.59359,-54.27349
2018-02-02 01:00:00+00:00,216.0,215.0,11.78,13.61,,47.59359,-54.27349
2018-02-02 01:10:00+00:00,223.0,225.0,11.62,12.97,,47.59359,-54.27349
2018-02-02 01:20:00+00:00,225.0,225.0,11.61,15.07,,47.59359,-54.27349
2018-02-02 01:30:00+00:00,229.0,230.0,12.67,15.61,,47.59359,-54.27349
2018-02-02 01:40:00+00:00,230.0,239.0,11.59,13.74,,47.59359,-54.27349
2018-02-02 01:50:00+00:00,231.0,231.0,11.97,14.24,,47.59359,-54.27349
2018-02-02 02:00:00+00:00,230.0,228.0,13.26,15.32,,47.59359,-54.27349
2018-02-02 02:10:00+00:00,222.0,231.0,15.15,18.91,,47.59359,-54.27349
2018-02-02 02:20:00+00:00,215.0,217.0,13.49,15.57,,47.59359,-54.27349
2018-02-02 02:30:00+00:00,214.0,218.0,16.22,21.8,,47.59359,-54.27349
2018-02-02 02:40:00+00:00,217.0,222.0,14.7,16.85,,47.59359,-54.27349
2018-02-02 02:50:00+00:00,220.0,224.0,15.49,18.29,,47.59359,-54.27349
2018-02-02 03:00:00+00:00,220.0,222.0,16.91,19.55,,47.59359,-54.27349
2018-02-02 03:10:00+00:00,219.0,218.0,16.66,19.95,,47.59359,-54.27349
2018-02-02 03:20:00+00:00,220.0,220.0,16.04,19.76,,47.59359,-54.27349
2018-02-02 03:30:00+00:00,223.0,224.0,15.76,19.35,,47.59359,-54.27349
2018-02-02 03:40:00+00:00,220.0,221.0,17.14,22.4,,47.59359,-54.27349
2018-02-02 03:50:00+00:00,219.0,216.0,16.63,20.36,,47.59359,-54.27349
2018-02-02 04:00:00+00:00,219.0,219.0,16.72,19.67,,47.59359,-54.27349
2018-02-02 04:10:00+00:00,217.0,220.0,16.21,18.83,,47.59359,-54.27349
2018-02-02 04:20:00+00:00,214.0,216.0,15.37,18.58,,47.59359,-54.27349
2018-02-02 04:30:00+00:00,222.0,220.0,16.44,19.89,,47.59359,-54.27349
2018-02-02 04:40:00+00:00,222.0,219.0,16.35,18.47,,47.59359,-54.27349
2018-02-02 04:50:00+00:00,223.0,223.0,18.68,21.33,,47.59359,-54.27349
2018-02-02 05:00:00+00:00,228.0,231.0,16.16,18.85,,47.59359,-54.27349
2018-02-02 05:10:00+00:00,227.0,225.0,19.49,23.07,,47.59359,-54.27349
2018-02-02 05:20:00+00:00,220.0,219.0,18.67,22.38,,47.59359,-54.27349
2018-02-02 05:30:00+00:00,220.0,219.0,19.14,22.84,,47.59359,-54.27349
2018-02-02 05:40:00+00:00,227.0,223.0,19.95,23.26,,47.59359,-54.27349
2018-02-02 05:50:00+00:00,224.0,226.0,20.42,24.5,,47.59359,-54.27349
2018-02-02 06:00:00+00:00,224.0,222.0,18.44,21.47,,47.59359,-54.27349
2018-02-02 06:10:00+00:00,224.0,225.0,19.16,23.58,,47.59359,-54.27349
2018-02-02 06:20:00+00:00,224.0,224.0,18.79,23.61,,47.59359,-54.27349
2018-02-02 06:30:00+00:00,235.0,233.0,16.18,19.94,,47.59359,-54.27349
2018-02-02 06:40:00+00:00,257.0,260.0,15.14,17.42,,47.59359,-54.27349
2018-02-02 06:50:00+00:00,253.0,260.0,14.48,16.93,,47.59359,-54.27349
2018-02-02 07:00:00+00:00,244.0,250.0,11.68,14.22,,47.59359,-54.27349
2018-02-02 07:10:00+00:00,246.0,239.0,12.72,14.9,,47.59359,-54.27349
2018-02-02 07:20:00+00:00,239.0,244.0,14.57,17.0,,47.59359,-54.27349
2018-02-02 07:30:00+00:00,234.0,232.0,13.35,16.46,,47.59359,-54.27349
2018-02-02 07:40:00+00:00,233.0,233.0,12.76,14.65,,47.59359,-54.27349
2018-02-02 07:50:00+00:00,233.0,236.0,10.69,13.54,,47.59359,-54.27349
2018-02-02 08:00:00+00:00,236.0,236.0,10.0,11.68,,47.59359,-54.27349
2018-02-02 08:10:00+00:00,230.0,232.0,9.06,10.09,,47.59359,-54.27349
2018-02-02 08:20:00+00:00,228.0,231.0,11.94,13.42,,47.59359,-54.27349
2018-02-02 08:30:00+00:00,224.0,220.0,11.38,13.02,,47.59359,-54.27349
2018-02-02 08:40:00+00:00,228.0,233.0,11.39,13.31,,47.59359,-54.27349
2018-02-02 08:50:00+00:00,226.0,225.0,11.68,13.38,,47.59359,-54.27349
2018-02-02 09:00:00+00:00,227.0,228.0,10.01,11.59,,47.59359,-54.27349
2018-02-02 09:10:00+00:00,224.0,228.0,10.19,11.46,,47.59359,-54.27349
2018-02-02 09:20:00+00:00,219.0,221.0,10.1,11.39,,47.59359,-54.27349
2018-02-02 09:30:00+00:00,220.0,226.0,9.43,10.75,,47.59359,-54.27349
2018-02-02 09:40:00+00:00,224.0,227.0,9.57,11.3,,47.59359,-54.27349
2018-02-02 09:50:00+00:00,224.0,231.0,8.66,10.85,,47.59359,-54.27349
2018-02-02 10:00:00+00:00,220.0,220.0,8.52,9.98,,47.59359,-54.27349
2018-02-02 10:10:00+00:00,228.0,228.0,9.34,11.09,,47.59359,-54.27349
2018-02-02 10:20:00+00:00,230.0,234.0,7.99,9.42,,47.59359,-54.27349
2018-02-02 10:30:00+00:00,226.0,230.0,8.01,9.41,,47.59359,-54.27349
2018-02-02 10:40:00+00:00,226.0,225.0,7.96,9.41,,47.59359,-54.27349
2018-02-02 10:50:00+00:00,231.0,233.0,7.95,8.95,,47.59359,-54.27349
2018-02-02 11:00:00+00:00,220.0,222.0,7.97,9.38,,47.59359,-54.27349
2018-02-02 11:10:00+00:00,221.0,218.0,7.41,8.78,,47.59359,-54.27349
2018-02-02 11:20:00+00:00,223.0,218.0,9.69,12.16,,47.59359,-54.27349
2018-02-02 11:30:00+00:00,223.0,222.0,9.15,10.71,,47.59359,-54.27349
2018-02-02 11:40:00+00:00,221.0,225.0,8.3,9.71,,47.59359,-54.27349
2018-02-02 11:50:00+00:00,223.0,229.0,8.43,9.83,,47.59359,-54.27349
2018-02-02 12:00:00+00:00,221.0,218.0,7.82,9.3,,47.59359,-54.27349
2018-02-02 12:10:00+00:00,222.0,226.0,7.63,9.1,,47.59359,-54.27349
2018-02-02 12:20:00+00:00,220.0,225.0,6.65,7.41,,47.59359,-54.27349
2018-02-02 12:30:00+00:00,218.0,220.0,6.16,7.07,,47.59359,-54.27349
2018-02-02 12:40:00+00:00,217.0,218.0,4.84,5.38,,47.59359,-54.27349
2018-02-02 12:50:00+00:00,212.0,212.0,6.37,7.03,,47.59359,-54.27349
2018-02-02 13:00:00+00:00,210.0,211.0,5.88,6.55,,47.59359,-54.27349
2018-02-02 13:10:00+00:00,214.0,216.0,5.4,5.78,,47.59359,-54.27349
2018-02-02 13:20:00+00:00,210.0,211.0,4.32,4.5,,47.59359,-54.27349
2018-02-02 13:30:00+00:00,241.0,241.0,4.78,5.11,,47.59359,-54.27349
2018-02-02 13:40:00+00:00,237.0,246.0,6.03,7.85,,47.59359,-54.27349
2018-02-02 13:50:00+00:00,249.0,248.0,5.69,6.74,,47.59359,-54.27349
2018-02-02 14:00:00+00:00,245.0,242.0,4.89,5.87,,47.59359,-54.27349
2018-02-02 14:10:00+00:00,229.0,230.0,7.08,8.37,,47.59359,-54.27349
2018-02-02 14:20:00+00:00,219.0,216.0,8.17,9.72,,47.59359,-54.27349
2018-02-02 14:30:00+00:00,219.0,218.0,10.24,11.17,,47.59359,-54.27349
2018-02-02 14:40:00+00:00,220.0,219.0,8.55,9.58,,47.59359,-54.27349
2018-02-02 14:50:00+00:00,213.0,213.0,10.05,10.81,,47.59359,-54.27349
2018-02-02 15:00:00+00:00,212.0,213.0,8.6,9.47,,47.59359,-54.27349
2018-02-02 15:10:00+00:00,214.0,212.0,7.66,8.68,,47.59359,-54.27349
2018-02-02 15:20:00+00:00,214.0,213.0,6.33,7.09,,47.59359,-54.27349
2018-02-02 15:30:00+00:00,217.0,220.0,5.99,6.64,,47.59359,-54.27349
2018-02-02 15:40:00+00:00,222.0,224.0,6.45,8.3,,47.59359,-54.27349
2018-02-02 15:50:00+00:00,222.0,214.0,7.73,8.77,,47.59359,-54.27349
2018-02-02 16:00:00+00:00,228.0,228.0,9.03,11.24,,47.59359,-54.27349
2018-02-02 16:10:00+00:00,230.0,227.0,11.81,14.0,,47.59359,-54.27349
2018-02-02 16:20:00+00:00,233.0,228.0,9.57,12.06,,47.59359,-54.27349
2018-02-02 16:30:00+00:00,243.0,244.0,9.99,11.8,,47.59359,-54.27349
2018-02-02 16:40:00+00:00,244.0,242.0,9.31,11.24,,47.59359,-54.27349
2018-02-02 16:50:00+00:00,247.0,249.0,10.24,13.42,,47.59359,-54.27349
2018-02-02 17:00:00+00:00,243.0,242.0,12.54,14.65,,47.59359,-54.27349
2018-02-02 17:10:00+00:00,237.0,238.0,12.08,13.94,,47.59359,-54.27349
2018-02-02 17:20:00+00:00,233.0,230.0,14.66,19.61,,47.59359,-54.27349
2018-02-02 17:30:00+00:00,230.0,230.0,17.08,19.0,,47.59359,-54.27349
2018-02-02 17:40:00+00:00,224.0,227.0,16.82,19.76,,47.59359,-54.27349
2018-02-02 17:50:00+00:00,220.0,218.0,17.61,21.8,,47.59359,-54.27349
2018-02-02 18:00:00+00:00,219.0,216.0,18.37,21.34,,47.59359,-54.27349
2018-02-02 18:10:00+00:00,221.0,220.0,17.97,21.05,,47.59359,-54.27349
2018-02-02 18:20:00+00:00,220.0,217.0,18.21,20.95,,47.59359,-54.27349
2018-02-02 18:30:00+00:00,222.0,221.0,18.33,22.17,,47.59359,-54.27349
2018-02-02 18:40:00+00:00,222.0,219.0,18.39,22.81,,47.59359,-54.27349
2018-02-02 18:50:00+00:00,221.0,220.0,20.04,22.83,,47.59359,-54.27349
2018-02-02 19:00:00+00:00,219.0,217.0,18.86,21.55,,47.59359,-54.27349
2018-02-02 19:10:00+00:00,222.0,225.0,21.25,25.81,,47.59359,-54.27349
2018-02-02 19:20:00+00:00,221.0,215.0,20.73,25.2,,47.59359,-54.27349
2018-02-02 19:30:00+00:00,220.0,220.0,20.0,23.92,,47.59359,-54.27349
2018-02-02 19:40:00+00:00,221.0,220.0,20.97,24.18,,47.59359,-54.27349
2018-02-02 19:50:00+00:00,221.0,225.0,19.92,24.44,,47.59359,-54.27349
2018-02-02 20:00:00+00:00,222.0,218.0,19.71,23.65,,47.59359,-54.27349
2018-02-02 20:10:00+00:00,222.0,225.0,19.25,21.33,,47.59359,-54.27349
2018-02-02 20:20:00+00:00,221.0,224.0,18.21,21.15,,47.59359,-54.27349
2018-02-02 20:30:00+00:00,225.0,225.0,21.18,24.48,,47.59359,-54.27349
2018-02-02 20:40:00+00:00,226.0,221.0,18.97,21.24,,47.59359,-54.27349
2018-02-02 20:50:00+00:00,230.0,232.0,15.85,18.14,,47.59359,-54.27349
2018-02-02 21:00:00+00:00,230.0,234.0,15.87,18.63,,47.59359,-54.27349
2018-02-02 21:10:00+00:00,233.0,233.0,13.75,16.17,,47.59359,-54.27349
2018-02-02 21:20:00+00:00,229.0,230.0,16.63,19.26,,47.59359,-54.27349
2018-02-02 21:30:00+00:00,227.0,227.0,16.81,20.33,,47.59359,-54.27349
2018-02-02 21:40:00+00:00,228.0,231.0,17.5,19.91,,47.59359,-54.27349
2018-02-02 21:50:00+00:00,218.0,222.0,17.44,21.51,,47.59359,-54.27349
2018-02-02 22:00:00+00:00,217.0,217.0,17.96,21.53,,47.59359,-54.27349
2018-02-02 22:10:00+00:00,212.0,214.0,18.25,22.22,,47.59359,-54.27349
2018-02-02 22:20:00+00:00,215.0,222.0,18.67,21.65,,47.59359,-54.27349
2018-02-02 22:30:00+00:00,214.0,214.0,19.03,22.32,,47.59359,-54.27349
2018-02-02 22:40:00+00:00,213.0,215.0,18.95,22.7,,47.59359,-54.27349
2018-02-02 22:50:00+00:00,211.0,210.0,21.41,25.05,,47.59359,-54.27349
2018-02-02 23:00:00+00:00,213.0,213.0,18.74,23.3,,47.59359,-54.27349
2018-02-02 23:10:00+00:00,212.0,220.0,20.01,25.71,,47.59359,-54.27349
2018-02-02 23:20:00+00:00,213.0,211.0,19.24,23.45,,47.59359,-54.27349
2018-02-02 23:30:00+00:00,210.0,207.0,20.12,27.36,,47.59359,-54.27349
2018-02-02 23:40:00+00:00,210.0,208.0,22.3,28.6,,47.59359,-54.27349
2018-02-02 23:50:00+00:00,209.0,208.0,19.94,27.52,,47.59359,-54.27349
